This is the latest recevied weather packets stored in our database for station/object OH2CHY-10. If no packets are shown the sender has not sent any weather packets the latest 10 day(s).
| Time | Temp. | Humidity | Pressure | Rain* | Wind** | Luminosity | Snow |
|---|---|---|---|---|---|---|---|
| 1778030068 | 0.56° C | 64% | 1009.8 hPa | - | - | - | - |
| 1778029167 | 1.11° C | 64% | 1009.8 hPa | - | - | - | - |
| 1778028267 | 1.11° C | 63% | 1009.6 hPa | - | - | - | - |
| 1778027368 | 1.11° C | 64% | 1009.5 hPa | - | - | - | - |
| 1778026467 | 1.67° C | 62% | 1009.3 hPa | - | - | - | - |
| 1778025567 | 1.67° C | 62% | 1009.3 hPa | - | - | - | - |
| 1778024667 | 1.67° C | 60% | 1009.3 hPa | - | - | - | - |
| 1778023767 | 2.22° C | 59% | 1009.1 hPa | - | - | - | - |
| 1778022867 | 2.22° C | 59% | 1009.1 hPa | - | - | - | - |
| 1778021967 | 2.22° C | 58% | 1009 hPa | - | - | - | - |
| 1778021067 | 2.78° C | 57% | 1008.8 hPa | - | - | - | - |
| 1778020167 | 2.78° C | 56% | 1008.7 hPa | - | - | - | - |
| 1778019267 | 2.78° C | 56% | 1008.6 hPa | - | - | - | - |
| 1778018367 | 3.33° C | 54% | 1008.6 hPa | - | - | - | - |
| 1778017467 | 3.89° C | 54% | 1008.5 hPa | - | - | - | - |
| 1778016567 | 3.89° C | 52% | 1008.4 hPa | - | - | - | - |
| 1778015666 | 4.44° C | 50% | 1008.3 hPa | - | - | - | - |
| 1778014766 | 4.44° C | 49% | 1008.2 hPa | - | - | - | - |
| 1778013866 | 5° C | 48% | 1007.9 hPa | - | - | - | - |
| 1778012966 | 5° C | 47% | 1007.8 hPa | - | - | - | - |
| 1778012066 | 5° C | 46% | 1007.6 hPa | - | - | - | - |
| 1778011166 | 5.56° C | 45% | 1007.5 hPa | - | - | - | - |
| 1778010266 | 5.56° C | 44% | 1007.5 hPa | - | - | - | - |
| 1778009366 | 6.11° C | 43% | 1007.3 hPa | - | - | - | - |
| 1778008466 | 6.11° C | 43% | 1007.1 hPa | - | - | - | - |
* Rain since midnight (hover to see other rain measurements)
** Current wind speed in m/s (hover to see current wind gust speed)